Flag Weather past 2 weeks in Bahía Blanca, Buenos Aires, Argentina

Now
57 °F

Passing clouds.


Feels Like: 57 °F
Forecast: N/A
Wind: 5 mph from South

Location: Mar Del Plata Aerodrome

Current Time: Oct 30, 2014 at 8:42:20 PM

Latest Report: Oct 30, 2014 at 8:00 PM


Visibility: N/A

Pressure: 29.83 "Hg

Humidity: 59%

Dew point: 43 °F

Location of Bahía BlancaLocation

Historic Weather in Bahía Blanca — Graph

°F

Bahía Blanca temperature yesterday

Maximum temperature yesterday: 66 °F (at 3:00 PM)
Minimum temperature yesterday: 52 °F (at 11:00 PM)
Average temperature yesterday: 59 °F

Past Weeks' High & Low Weather Summary

 TemperatureHumidityPressure
High84 °F (Oct 22, 2:00 PM)100% (Oct 16, 6:00 AM)30.18 "Hg (Oct 16, 6:00 AM)
Low37 °F (Oct 20, 6:00 AM)27% (Oct 30, 4:00 PM)29.62 "Hg (Oct 27, 4:00 PM)
Average62 °F77%29.91 "Hg
* Reported Oct 15 7:00 PM — Oct 30 7:00 PM, Bahía Blanca, Weather by CustomWeather, © 2014

Note: Actual official high and low records may vary slightly from our data, if they occured in-between our weather recording intervals... More about our weather records

Advertising

Bahía Blanca weather history for previous 24 hours

 ConditionsComfort  
Time TempWeatherWind HumidityBarometerVisibility
7:00 PM
Oct 30
57 °FClear.6 mph59%29.80 "Hg10 mi
6:00 PM61 °FPassing clouds.9 mph48%29.77 "HgN/A
5:00 PM64 °FPassing clouds.9 mph43%29.74 "HgN/A
4:00 PM72 °FPassing clouds.13 mph27%29.74 "HgN/A
3:00 PM70 °FPassing clouds.12 mph31%29.74 "HgN/A
2:00 PM70 °FPassing clouds.15 mph35%29.77 "HgN/A
1:00 PM68 °FSunny.16 mph35%29.77 "Hg10 mi
12:00 PM68 °FSunny.21 mph40%29.77 "Hg10 mi
11:00 AM64 °FSunny.14 mph46%29.77 "Hg10 mi
10:00 AM61 °FSunny.15 mph52%29.80 "Hg10 mi
9:00 AM57 °FSunny.13 mph67%29.80 "Hg10 mi
8:00 AM54 °FSunny.14 mph77%29.77 "Hg10 mi
7:00 AM48 °FSunny.9 mph82%29.77 "Hg10 mi
6:00 AM45 °FSunny.8 mph87%29.74 "Hg10 mi
5:00 AM45 °FSunny.6 mph87%29.71 "Hg10 mi
4:00 AM45 °FClear.5 mph93%29.71 "Hg10 mi
3:00 AM46 °FClear.No wind93%29.74 "Hg10 mi
2:00 AM52 °FClear.No wind82%29.71 "Hg10 mi
1:00 AM52 °FClear.6 mph77%29.74 "Hg10 mi
12:00 AM55 °FClear.6 mph67%29.74 "Hg10 mi
11:00 PM
Oct 29
52 °FClear.No wind88%29.74 "Hg10 mi
10:00 PM55 °FClear.No wind82%29.71 "Hg10 mi
9:00 PM57 °FClear.No wind77%29.71 "Hg10 mi
8:00 PM61 °FPassing clouds.No wind68%29.68 "HgN/A
Weather by CustomWeather, © 2014

See weather overviewHow to use our weather pages